Weather History for New Richmond, WI

Change the Weather History Date:

Thursday, August 30, 2012

  Actual Average (KMSP) Record (KMSP)
Temperature  
Mean Temperature 78 °F 68 °F  
Max Temperature 89 °F 78 °F 96 °F (1941)
Min Temperature 68 °F 59 °F 45 °F (1935)
Degree Days  
Heating Degree Days 0 1  
Month to date heating degree days 9  
Since 1 June heating degree days 58  
Since 1 July heating degree days 14  
Cooling Degree Days 14 5  
Month to date cooling degree days 200  
Year to date cooling degree days 676  
Since 1 June cooling degree days 634  
Growing Degree Days 28 (Base 50)    
Moisture  
Dew Point 60 °F    
Average Humidity 55    
Maximum Humidity 83    
Minimum Humidity 29    
Precipitation  
Precipitation 0.00 in 0.12 in 7.28 in (1977)
Month to date precipitation 4.18  
Year to date precipitation 22.05  
Snow  
Snow 0.00 in 0.00 in 0.00 in ()
Month to date snowfall 0.0  
Since 1 June snowfall 0.0  
Since 1 July snowfall 0.0  
Snow Depth -    
Sea Level Pressure  
Sea Level Pressure 29.81 in    
Wind  
Wind Speed 10 mph (SW)    
Max Wind Speed 18 mph    
Max Gust Speed 24 mph    
Visibility 10 miles    
Events      
T = Trace of Precipitation, MM = Missing Value Source: NWS Daily Summary

Daily Weather History Graph

Daily Weather History Graph

Search for Another Location

Airport:

Trip Planner

Search our weather history database for the weather conditions in past years. The results will help you decide how hot, cold, wet, or windy it might be!

Date:

Astronomy

Aug. 30, 2012 Rise Set
Actual Time 6:30 AM CDT 7:50 PM CDT
Civil Twilight 5:59 AM CDT 8:20 PM CDT
Nautical Twilight 5:22 AM CDT 8:57 PM CDT
Astronomical Twilight 4:43 AM CDT 9:36 PM CDT
Moon 7:03 PM CDT 5:31 AM CDT
Length of Visible Light 14h 20m
Length of Day
13h 19m
Waxing Gibbous, 99% of the Moon is Illuminated
Aug 30
Waxing Gibbous
Aug 31
Full
Sep 8
Last Quarter
Sep 15
New
Sep 22
First Quarter

Hourly Weather History & Observations

Time (CDT) Temp. Heat Index Dew Point Humidity Pressure Visibility Wind Dir Wind Speed Gust Speed Precip Events Conditions
12:15 AM 73.4 °F - 60.8 °F 65% 29.83 in 10.0 mi South 9.2 mph - N/A   Clear
12:35 AM 73.4 °F - 60.8 °F 65% 29.82 in 10.0 mi South 10.4 mph - N/A   Clear
1:15 AM 73.4 °F - 60.8 °F 65% 29.82 in 10.0 mi South 10.4 mph - N/A   Clear
1:35 AM 73.4 °F - 60.8 °F 65% 29.82 in 10.0 mi South 8.1 mph - N/A   Clear
1:55 AM 71.6 °F - 60.8 °F 69% 29.82 in 10.0 mi South 8.1 mph - N/A   Clear
2:15 AM 71.6 °F - 60.8 °F 69% 29.81 in 10.0 mi South 9.2 mph - N/A   Clear
2:35 AM 73.4 °F - 60.8 °F 65% 29.80 in 10.0 mi South 11.5 mph 16.1 mph N/A   Clear
2:55 AM 73.4 °F - 60.8 °F 65% 29.80 in 10.0 mi South 11.5 mph - N/A   Clear
3:35 AM 73.4 °F - 60.8 °F 65% 29.79 in 10.0 mi South 16.1 mph 20.7 mph N/A   Clear
3:55 AM 73.4 °F - 60.8 °F 65% 29.78 in 10.0 mi South 12.7 mph 19.6 mph N/A   Clear
4:15 AM 73.4 °F - 60.8 °F 65% 29.78 in 10.0 mi South 11.5 mph - N/A   Clear
4:35 AM 73.4 °F - 60.8 °F 65% 29.77 in 10.0 mi South 10.4 mph - N/A   Clear
4:55 AM 73.4 °F - 60.8 °F 65% 29.77 in 10.0 mi South 11.5 mph 17.3 mph N/A   Clear
5:15 AM 73.4 °F - 60.8 °F 65% 29.77 in 10.0 mi South 13.8 mph 18.4 mph N/A   Clear
5:35 AM 73.4 °F - 60.8 °F 65% 29.76 in 10.0 mi South 11.5 mph 16.1 mph N/A   Clear
5:55 AM 73.4 °F - 60.8 °F 65% 29.76 in 10.0 mi South 11.5 mph - N/A   Clear
6:15 AM 73.4 °F - 60.8 °F 65% 29.76 in 10.0 mi South 10.4 mph - N/A   Clear
6:35 AM 71.6 °F - 60.8 °F 69% 29.76 in 10.0 mi South 11.5 mph 17.3 mph N/A   Clear
6:55 AM 71.6 °F - 59.0 °F 64% 29.77 in 10.0 mi South 10.4 mph - N/A   Clear
7:15 AM 73.4 °F - 59.0 °F 61% 29.77 in 10.0 mi South 10.4 mph - N/A   Clear
7:35 AM 73.4 °F - 59.0 °F 61% 29.77 in 10.0 mi South 11.5 mph - N/A   Clear
7:55 AM 73.4 °F - 59.0 °F 61% 29.77 in 10.0 mi SSW 10.4 mph 16.1 mph N/A   Clear
8:15 AM 77.0 °F - 59.0 °F 54% 29.77 in 10.0 mi SSW 11.5 mph 18.4 mph N/A   Clear
8:35 AM 77.0 °F - 59.0 °F 54% 29.77 in 10.0 mi SSW 15.0 mph 20.7 mph N/A   Clear
8:55 AM 78.8 °F - 59.0 °F 51% 29.77 in 10.0 mi SSW 17.3 mph 23.0 mph N/A   Clear
9:15 AM 78.8 °F - 59.0 °F 51% 29.77 in 10.0 mi SSW 17.3 mph 21.9 mph N/A   Clear
9:35 AM 80.6 °F 81.1 °F 59.0 °F 48% 29.77 in 10.0 mi SW 18.4 mph 24.2 mph N/A   Clear
9:55 AM 80.6 °F 81.1 °F 59.0 °F 48% 29.78 in 10.0 mi SW 13.8 mph 24.2 mph N/A   Clear
10:15 AM 80.6 °F 81.1 °F 59.0 °F 48% 29.79 in 10.0 mi SW 16.1 mph 24.2 mph N/A   Clear
10:35 AM 82.4 °F 82.5 °F 59.0 °F 45% 29.79 in 10.0 mi SW 15.0 mph 24.2 mph N/A   Clear
10:55 AM 82.4 °F 82.0 °F 57.2 °F 42% 29.78 in 10.0 mi SW 17.3 mph 23.0 mph N/A   Clear
11:15 AM 84.2 °F 83.5 °F 57.2 °F 40% 29.79 in 10.0 mi SW 18.4 mph 23.0 mph N/A   Clear
11:35 AM 84.2 °F 83.5 °F 57.2 °F 40% 29.78 in 10.0 mi SW 16.1 mph 20.7 mph N/A   Clear
11:55 AM 86.0 °F 84.9 °F 57.2 °F 37% 29.79 in 10.0 mi SW 16.1 mph 19.6 mph N/A   Clear
12:15 PM 86.0 °F 84.5 °F 55.4 °F 35% 29.79 in 10.0 mi SW 17.3 mph - N/A   Clear
12:35 PM 86.0 °F 84.9 °F 57.2 °F 37% 29.78 in 10.0 mi SSW 16.1 mph 21.9 mph N/A   Clear
12:55 PM 87.8 °F 86.5 °F 57.2 °F 35% 29.77 in 10.0 mi SSW 11.5 mph - N/A   Clear
1:15 PM 87.8 °F 86.5 °F 57.2 °F 35% 29.77 in 10.0 mi WSW 12.7 mph 21.9 mph N/A   Clear
1:35 PM 89.6 °F 88.1 °F 57.2 °F 33% 29.77 in 10.0 mi SW 12.7 mph 20.7 mph N/A   Clear
1:55 PM 87.8 °F 87.1 °F 59.0 °F 38% 29.78 in 10.0 mi SW 10.4 mph - N/A   Clear
2:15 PM 89.6 °F 88.9 °F 59.0 °F 36% 29.79 in 10.0 mi SW 15.0 mph 20.7 mph N/A   Clear
2:35 PM 89.6 °F 88.9 °F 59.0 °F 36% 29.79 in 10.0 mi SSW 15.0 mph 18.4 mph N/A   Clear
2:55 PM 89.6 °F 87.7 °F 55.4 °F 31% 29.79 in 10.0 mi WSW 12.7 mph 18.4 mph N/A   Clear
3:15 PM 89.6 °F 87.7 °F 55.4 °F 31% 29.79 in 10.0 mi West 15.0 mph 20.7 mph N/A   Clear
3:35 PM 89.6 °F 87.3 °F 53.6 °F 29% 29.79 in 10.0 mi WSW 11.5 mph 15.0 mph N/A   Clear
3:55 PM 89.6 °F 87.7 °F 55.4 °F 31% 29.79 in 10.0 mi WSW 10.4 mph 18.4 mph N/A   Clear
4:15 PM 89.6 °F 87.7 °F 55.4 °F 31% 29.79 in 10.0 mi West 10.4 mph 16.1 mph N/A   Clear
4:35 PM 89.6 °F 87.7 °F 55.4 °F 31% 29.80 in 10.0 mi WNW 9.2 mph - N/A   Clear
4:55 PM 87.8 °F 86.1 °F 55.4 °F 33% 29.80 in 10.0 mi West 8.1 mph - N/A   Clear
5:15 PM 87.8 °F 86.5 °F 57.2 °F 35% 29.81 in 10.0 mi West 5.8 mph - N/A   Clear
5:35 PM 86.0 °F 84.5 °F 55.4 °F 35% 29.82 in 10.0 mi WNW 6.9 mph - N/A   Clear
5:55 PM 84.2 °F 83.8 °F 59.0 °F 42% 29.82 in 10.0 mi NW 4.6 mph - N/A   Clear
6:15 PM 82.4 °F 82.5 °F 59.0 °F 45% 29.83 in 10.0 mi NW 5.8 mph - N/A   Clear
6:35 PM 80.6 °F 81.1 °F 59.0 °F 48% 29.82 in 10.0 mi NW 4.6 mph - N/A   Clear
6:55 PM 80.6 °F 81.5 °F 60.8 °F 51% 29.82 in 10.0 mi NW 3.5 mph - N/A   Clear
7:15 PM 77.0 °F - 62.6 °F 61% 29.82 in 10.0 mi WNW 3.5 mph - N/A   Clear
7:35 PM 77.0 °F - 62.6 °F 61% 29.81 in 10.0 mi Calm Calm - N/A   Clear
7:55 PM 77.0 °F - 62.6 °F 61% 29.83 in 10.0 mi Calm Calm - N/A   Clear
8:15 PM 73.4 °F - 62.6 °F 69% 29.84 in 10.0 mi NNW 3.5 mph - N/A   Clear
8:35 PM 73.4 °F - 62.6 °F 69% 29.85 in 10.0 mi NW 3.5 mph - N/A   Clear
8:55 PM 71.6 °F - 62.6 °F 73% 29.87 in 10.0 mi NNW 3.5 mph - N/A   Clear
9:15 PM 71.6 °F - 62.6 °F 73% 29.87 in 10.0 mi Calm Calm - N/A   Clear
9:35 PM 69.8 °F - 62.6 °F 78% 29.89 in 10.0 mi Calm Calm - N/A   Clear
9:55 PM 69.8 °F - 62.6 °F 78% 29.89 in 10.0 mi Calm Calm - N/A   Clear
10:15 PM 69.8 °F - 62.6 °F 78% 29.90 in 10.0 mi NNW 4.6 mph - N/A   Clear
10:35 PM 69.8 °F - 64.4 °F 83% 29.90 in 10.0 mi North 3.5 mph - N/A   Clear
10:55 PM 69.8 °F - 64.4 °F 83% 29.90 in 10.0 mi North 3.5 mph - N/A   Clear
11:15 PM 68.0 °F - 62.6 °F 83% 29.92 in 10.0 mi North 4.6 mph - N/A   Clear
11:35 PM 68.0 °F - 62.6 °F 83% 29.92 in 10.0 mi North 3.5 mph - N/A   Clear
11:55 PM 68.0 °F - 60.8 °F 78% 29.94 in 10.0 mi North 3.5 mph - N/A   Clear